OBJECT BH, 61790

Orbit data source: Space-Track

You're viewing an Uncataloged Satellite

Recently launched and/or uncataloged satellites may have evolving metadata. Metadata may include but not limited to: Owner, Maufacturer, Bus, Motor, and Mission.

OBJECT BH, 61790 is a satellite in SSO that was launched on Mon, 04 Nov 2024 UTC via a SOYUZ-2-1B launch vehicle from the Vostochny Cosmodrome (VOSTO). Unknown objects in Earth's orbit typically refer to objects detected orbiting the Earth but have not yet been identified or cataloged. These objects could be anything from previously untracked satellites, spent rocket stages, debris from satellite collisions, or even natural meteoroids temporarily captured by Earth's gravity.

Loading next visibility...
Identifier
61790, 2024-199BH
Orbit
SSO
Country
Flag of TBDTBD
Related business
Manufacturer
Sputniks
Mission
Operational Commercial Communications
Bus & Motor
CUBESAT 3U?, Unknown motor
Mass
3 kg wet, 3 kg dry
Launch date (UTC)
2024-11-04 (2 years ago)
Launch vehicle
SOYUZ-2-1B
Launch site
Vostochny Cosmodrome (VOSTO)
Object type
Unknown
Shape & HBR
Box, 0.1 m
Radar Cross Section
0.035 m², Small (<0.1 m²)

Expand to show TLE details & history
Last TLE update: 7 hours ago

TLE from 7 hours ago
0 OBJECT BH
1 61790U 24199BH  26128.15684853  .00002257  00000-0  19716-3 0  9990
2 61790  97.3253 330.2083 0005734 194.7959 165.3097 14.97702882126048
Epoch: 2026-05-08T03:45Z
TLE epoch observation values (Epoch: 2026-05-08T03:45:51.712Z)
Latitude
-0.00009°
Longitude
47.75017°
Altitude
580.915 km
Speed
7.568 km/s
True Right ascension
22h 00m 49s
True Declination
0° 00' 00"
Sunlit
Object was in daylight at epoch
Visualization orbit readout
Latitude
Unknown
Longitude
Unknown
Altitude
Unknown
Speed
Unknown
Apparent Right ascension
Unknown
Apparent Declination
Unknown
Sunlit
N/A
Visualization observer readout
Local Sidereal Time
18:47:31
Azimuth
Unknown
Elevation
Unknown
Doppler factor
Unknown
Orbital elements
Apogee altitude
574.973 km
Perigee altitude
567.003 km
Semi-major axis
6,949.125 km
Eccentricity
0.00057
Inclination
97.3253°
RAAN
330.2083°
Arg. of periapsis
194.7959°
True anomaly
165.32635°
Mean anomaly
165.3097°
Eccentric anomaly
165.31803°
Mean motion
3.74669 °/min
Orbital period
96.08 mins
BSTAR
0.00019716
Loading maneuver chart data...
Computing Atmospheric mass density...
Loading historical data...
Loading historical data...
Loading historical data...
Loading historical data...
Loading historical data...
Loading historical data...
Loading historical data...

Documentation

Showing up to 5 results
|